Home   Weather   Vaasa   Past weeks

Flag for Finland Past Weather in Vaasa, Finland — Yesterday and Last 2 Weeks

Now
54 °F

Overcast.


Feels Like: 52 °F
Forecast: 51 / 59 °F
Wind: 6 mph from South

Location: Vaasa Airport

Current Time: Sep 25, 2016 at 8:27:51 AM

Latest Report: Sep 25, 2016 at 7:50 AM


Visibility: N/A

Pressure: 30.01 "Hg

Humidity: 94%

Dew Point: 52 °F

Location of VaasaLocation

Past Weather in Vaasa — Graph

°F

Vaasa Temperature Yesterday

Maximum temperature yesterday: 50 °F (at 4:20 PM)
Minimum temperature yesterday: 45 °F (at 12:20 AM)
Average temperature yesterday: 48 °F

High & Low Weather Summary for the Past Weeks

 TemperatureHumidityPressure
High68 °F (Sep 11, 2:50 PM)100% (Sep 10, 8:20 AM)30.27 "Hg (Sep 10, 8:20 AM)
Low30 °F (Sep 17, 6:50 AM)51% (Sep 17, 3:20 PM)29.74 "Hg (Sep 11, 4:50 PM)
Average51 °F83%30.11 "Hg
* Reported Sep 10 7:20 AM — Sep 25 7:20 AM, Vaasa, Weather by CustomWeather, © 2016

Note: Actual official high and low records may vary slightly from our data, if they occured in-between our weather recording intervals... More about our weather records

Advertising

Vaasa Weather History for the Previous 24 Hours

Scroll right to see more
 ConditionsComfort  
Time TempWeatherWind HumidityBarometerVisibility
7:20 AM
Sun, Sep 25
52 °FOvercast.7 mph94%30.01 "HgN/A
6:50 AM52 °FOvercast.7 mph94%30.01 "HgN/A
6:20 AM52 °FPassing clouds.8 mph94%30.01 "HgN/A
5:50 AM52 °FMostly cloudy.6 mph94%30.04 "HgN/A
5:20 AM50 °FLight rain. Overcast.6 mph100%30.04 "HgN/A
4:50 AM50 °FMostly cloudy.6 mph94%30.04 "HgN/A
4:20 AM50 °FMostly cloudy.5 mph94%30.04 "HgN/A
3:50 AM48 °FPassing clouds.5 mph100%30.04 "HgN/A
3:20 AM48 °FPassing clouds.5 mph100%30.04 "HgN/A
2:50 AM50 °FPassing clouds.5 mph94%30.04 "HgN/A
2:20 AM50 °FMostly cloudy.6 mph94%30.04 "HgN/A
1:50 AM50 °FOvercast.6 mph94%30.01 "HgN/A
1:20 AM48 °FMostly cloudy.7 mph100%30.01 "HgN/A
12:50 AM48 °FLight rain. Low clouds.7 mph94%30.04 "Hg5 mi
12:20 AM48 °FLow clouds.7 mph94%30.04 "HgN/A
11:50 PM
Sat, Sep 24
48 °FLight rain. Mostly cloudy.7 mph94%30.04 "Hg6 mi
11:20 PM48 °FMostly cloudy.6 mph87%30.04 "HgN/A
10:50 PM48 °FOvercast.7 mph82%30.04 "HgN/A
10:20 PM48 °FMostly cloudy.6 mph82%30.04 "HgN/A
9:50 PM48 °FOvercast.6 mph82%30.04 "HgN/A
9:20 PM48 °FOvercast.7 mph82%30.04 "HgN/A
8:50 PM48 °FOvercast.7 mph82%30.04 "HgN/A
8:20 PM48 °FOvercast.7 mph82%30.04 "HgN/A
7:50 PM48 °FOvercast.6 mph82%30.04 "HgN/A
7:20 PM48 °FOvercast.6 mph76%30.04 "HgN/A
6:50 PM48 °FOvercast.5 mph76%30.04 "HgN/A
6:20 PM50 °FOvercast.3 mph71%30.04 "HgN/A
5:50 PM48 °FMostly cloudy.3 mph76%30.04 "HgN/A
5:20 PM48 °FOvercast.5 mph71%30.04 "HgN/A
4:50 PM48 °FOvercast.3 mph71%30.04 "HgN/A
4:20 PM50 °FOvercast.6 mph67%30.04 "HgN/A
3:50 PM48 °FOvercast.5 mph71%30.04 "HgN/A
3:20 PM48 °FOvercast.3 mph66%30.04 "HgN/A
2:50 PM48 °FOvercast.3 mph66%30.04 "HgN/A
2:20 PM48 °FOvercast.7 mph66%30.04 "HgN/A
1:50 PM48 °FOvercast.7 mph62%30.04 "HgN/A
1:20 PM48 °FOvercast.9 mph62%30.04 "HgN/A
12:50 PM48 °FMostly cloudy.12 mph62%30.04 "HgN/A
12:20 PM48 °FMore clouds than sun.8 mph66%30.04 "HgN/A
11:50 AM48 °FOvercast.8 mph66%30.04 "HgN/A
11:20 AM48 °FOvercast.8 mph71%30.01 "HgN/A
10:50 AM48 °FOvercast.7 mph71%30.01 "HgN/A
10:20 AM48 °FOvercast.6 mph76%30.01 "HgN/A
9:50 AM48 °FOvercast.7 mph76%30.01 "HgN/A
9:20 AM46 °FOvercast.8 mph82%30.01 "HgN/A
8:50 AM46 °FOvercast.7 mph82%29.98 "HgN/A
8:20 AM46 °FOvercast.7 mph87%29.98 "HgN/A
Weather by CustomWeather, © 2016

See weather overviewHow to use our weather pages